This demonstration page uses our WeatherBlox Daily Observations layout. Learn more.

Left ArrowRight Arrow

39.12711, -84.51439

Hourly Observations for October 16, 2018

Temp ( °F °C ) Dew Point ( °F °C ) Humidity (%) Winds ( mph kmh ) Pressure ( in mb ) Visibility ( mi km ) Precip ( " mm )
12:53 am 00:53 Clear 42 5.6 41 5 96 96 N N/A 30.32 1027 10 16 N/A
1:53 am 01:53 Clear 42 5.6 41 5 96 96 NE 3 6 30.29 1026 10 16 N/A
2:53 am 02:53 Clear 42 5.6 42 5.6 100 100 N N/A 30.30 1026 10 16 N/A
3:53 am 03:53 Clear 42 5.6 40 4.4 92 92 N N/A 30.31 1027 10 16 N/A
4:53 am 04:53 Clear 39 3.9 39 3.9 100 100 NNE 3 6 30.31 1026 10 16 N/A
5:53 am 05:53 Clear 39 3.9 39 3.9 100 100 N N/A 30.32 1027 10 16 N/A
6:53 am 06:53 Clear 39 3.9 38 3.3 96 96 N N/A 30.32 1027 10 16 N/A
7:53 am 07:53 Sunny with Patchy Fog 38 3.3 38 3.3 100 100 N N/A 30.31 1027 10 16 N/A
8:53 am 08:53 Sunny 39 3.9 39 3.9 100 100 N N/A 30.33 1027 10 16 N/A
9:53 am 09:53 Sunny 43 6.1 39 3.9 86 86 N N/A 30.33 1027 10 16 N/A
10:53 am 10:53 Sunny 46 7.8 37 2.8 71 71 N N/A 30.32 1027 10 16 N/A
11:53 am 11:53 Sunny 48 8.9 36 2.2 63 63 N N/A 30.30 1026 10 16 N/A
12:53 pm 12:53 Sunny 50 10 39 3.9 66 66 ESE 5 7 30.27 1025 10 16 N/A
1:53 pm 13:53 Sunny 54 12.2 39 3.9 57 57 SW 8 13 30.24 1024 10 16 N/A
2:53 pm 14:53 Sunny 54 12.2 37 2.8 53 53 S 8 13 30.21 1023 10 16 N/A
3:53 pm 15:53 Sunny 54 12.2 38 3.3 55 55 SSW 9 15 30.18 1022 10 16 N/A
4:53 pm 16:53 Sunny 53 11.7 38 3.3 57 57 SW 9 15 30.18 1022 10 16 N/A
5:53 pm 17:53 Sunny 51 10.6 37 2.8 59 59 SSW 10 17 30.17 1022 10 16 N/A
6:53 pm 18:53 Sunny 48 8.9 40 4.4 74 74 SSW 7 11 30.17 1022 10 16 N/A
7:53 pm 19:53 Clear 45 7.2 40 4.4 83 83 S 6 9 30.17 1022 10 16 N/A
8:53 pm 20:53 Clear 45 7.2 41 5 86 86 S 9 15 30.17 1022 10 16 N/A
9:53 pm 21:53 Clear 45 7.2 40 4.4 83 83 SW 7 11 30.19 1023 10 16 N/A
10:53 pm 22:53 Clear 44 6.7 39 3.9 83 83 SW 8 13 30.20 1023 10 16 N/A
11:53 pm 23:53 Clear 44 6.7 39 3.9 83 83 SSW 7 11 30.21 1023 10 16 N/A

Powered by AerisWeather